{"data":{"norad_id":51874,"epoch":"2026-05-25T01:14:33.664992Z","epoch_age_seconds":70890,"freshness":"FRESH","line1":"1 51874U 22022Y   26145.05177853 -.00000201  00000+0  54503-5 0  9992","line2":"2 51874  53.2139  26.3154 0001729 100.2833 259.8355 15.08841896234632","mean_motion":15.08841896,"eccentricity":0.0001729,"inclination_deg":53.2139,"raan_deg":26.3154,"arg_perigee_deg":100.2833,"mean_anomaly_deg":259.8355,"bstar":5.4503e-6,"rev_number":23463,"period_min":95.437434751613,"perigee_km":538.54149313944,"apogee_km":540.93369417392,"semimajor_km":6917.8745936567,"source":"CELESTRAK","updated_at":"2026-05-25T13:38:16.983488Z"}}